Time,TemperatureF,DewpointF,PressureIn,WindDirection,WindDirectionDegrees,WindSpeedMPH,WindSpeedGustMPH,Humidity,HourlyPrecipIn,Conditions,Clouds,dailyrainin,SoftwareType,DateUTC
2013-06-12 00:01:00,53.0,46.0,30.13,West,269,2.0,4.0,78,0.00,,,0.00,,2013-06-12 07:01:00,
2013-06-12 00:11:00,53.0,46.0,30.13,West,270,0.0,5.0,78,0.00,,,0.00,,2013-06-12 07:11:00,
2013-06-12 00:22:00,53.0,46.0,30.14,WSW,244,0.0,1.0,78,0.00,,,0.00,,2013-06-12 07:22:00,
2013-06-12 00:33:00,53.0,47.0,30.13,West,276,0.0,2.0,79,0.00,,,0.00,,2013-06-12 07:33:00,
2013-06-12 00:43:00,53.0,47.0,30.13,West,265,1.0,5.0,80,0.00,,,0.00,,2013-06-12 07:43:00,
2013-06-12 00:53:00,53.0,47.0,30.13,SSW,206,0.0,5.0,80,0.00,,,0.00,,2013-06-12 07:53:00,
2013-06-12 01:01:00,53.0,47.0,30.13,WSW,250,0.0,4.0,80,0.00,,,0.00,,2013-06-12 08:01:00,
2013-06-12 01:22:00,52.0,46.0,30.13,WNW,283,0.0,5.0,81,0.00,,,0.00,,2013-06-12 08:22:00,
2013-06-12 01:33:00,52.0,46.0,30.13,WNW,283,0.0,1.0,81,0.00,,,0.00,,2013-06-12 08:33:00,
2013-06-12 01:42:00,52.0,46.0,30.12,West,275,0.0,3.0,81,0.00,,,0.00,,2013-06-12 08:42:00,
2013-06-12 01:52:00,52.0,46.0,30.12,NW,308,0.0,1.0,81,0.00,,,0.00,,2013-06-12 08:52:00,
2013-06-12 02:01:00,52.0,46.0,30.12,West,271,0.0,2.0,81,0.00,,,0.00,,2013-06-12 09:01:00,
2013-06-12 02:11:00,52.0,46.0,30.12,West,280,0.0,2.0,81,0.00,,,0.00,,2013-06-12 09:11:00,
2013-06-12 02:22:00,51.0,46.0,30.12,West,280,0.0,1.0,82,0.00,,,0.00,,2013-06-12 09:22:00,
2013-06-12 02:33:00,51.0,46.0,30.12,West,281,0.0,4.0,82,0.00,,,0.00,,2013-06-12 09:33:00,
2013-06-12 02:42:00,50.0,45.0,30.12,West,281,0.0,3.0,83,0.00,,,0.00,,2013-06-12 09:42:00,
2013-06-12 02:53:00,50.0,45.0,30.12,West,281,0.0,3.0,83,0.00,,,0.00,,2013-06-12 09:53:00,
2013-06-12 03:01:00,50.0,46.0,30.12,West,281,0.0,1.0,85,0.00,,,0.00,,2013-06-12 10:01:00,
2013-06-12 03:11:00,50.0,46.0,30.12,West,281,0.0,1.0,85,0.00,,,0.00,,2013-06-12 10:11:00,
2013-06-12 03:22:00,49.0,45.0,30.12,West,281,0.0,1.0,86,0.00,,,0.00,,2013-06-12 10:22:00,
2013-06-12 03:32:00,49.0,45.0,30.12,West,281,0.0,0.0,86,0.00,,,0.00,,2013-06-12 10:32:00,
2013-06-12 03:42:00,49.0,45.0,30.12,West,281,0.0,1.0,86,0.00,,,0.00,,2013-06-12 10:42:00,
2013-06-12 03:53:00,49.0,45.0,30.12,West,281,0.0,0.0,86,0.00,,,0.00,,2013-06-12 10:53:00,
2013-06-12 04:01:00,48.0,44.0,30.12,West,281,0.0,0.0,86,0.00,,,0.00,,2013-06-12 11:01:00,
2013-06-12 04:12:00,48.0,44.0,30.12,West,281,0.0,0.0,86,0.00,,,0.00,,2013-06-12 11:12:00,
2013-06-12 04:23:00,48.0,44.0,30.12,West,281,0.0,0.0,86,0.00,,,0.00,,2013-06-12 11:23:00,
2013-06-12 04:33:00,47.0,43.0,30.12,West,281,0.0,0.0,86,0.00,,,0.00,,2013-06-12 11:33:00,
2013-06-12 04:42:00,47.0,43.0,30.12,West,281,0.0,0.0,87,0.00,,,0.00,,2013-06-12 11:42:00,
2013-06-12 04:53:00,47.0,43.0,30.12,West,281,0.0,0.0,87,0.00,,,0.00,,2013-06-12 11:53:00,
2013-06-12 05:01:00,46.0,42.0,30.12,West,281,0.0,0.0,87,0.00,,,0.00,,2013-06-12 12:01:00,
2013-06-12 05:11:00,46.0,43.0,30.13,West,281,0.0,0.0,88,0.00,,,0.00,,2013-06-12 12:11:00,
2013-06-12 05:23:00,46.0,43.0,30.12,West,281,0.0,0.0,88,0.00,,,0.00,,2013-06-12 12:23:00,
2013-06-12 05:33:00,46.0,43.0,30.13,West,281,0.0,0.0,88,0.00,,,0.00,,2013-06-12 12:33:00,
2013-06-12 05:42:00,46.0,43.0,30.13,West,281,0.0,0.0,89,0.00,,,0.00,,2013-06-12 12:42:00,
2013-06-12 05:53:00,45.0,42.0,30.13,West,281,0.0,0.0,89,0.00,,,0.00,,2013-06-12 12:53:00,
2013-06-12 06:01:00,45.0,42.0,30.13,West,281,0.0,0.0,89,0.00,,,0.00,,2013-06-12 13:01:00,
2013-06-12 06:11:00,45.0,42.0,30.13,West,281,0.0,0.0,90,0.00,,,0.00,,2013-06-12 13:11:00,
2013-06-12 06:22:00,45.0,42.0,30.14,West,281,0.0,1.0,90,0.00,,,0.00,,2013-06-12 13:22:00,
2013-06-12 06:32:00,45.0,43.0,30.13,West,281,0.0,1.0,91,0.00,,,0.00,,2013-06-12 13:32:00,
2013-06-12 06:43:00,45.0,43.0,30.14,West,281,0.0,1.0,91,0.00,,,0.00,,2013-06-12 13:43:00,
2013-06-12 06:53:00,46.0,44.0,30.14,West,281,0.0,0.0,92,0.00,,,0.00,,2013-06-12 13:53:00,
2013-06-12 07:01:00,46.0,44.0,30.14,West,281,0.0,0.0,92,0.00,,,0.00,,2013-06-12 14:01:00,
2013-06-12 07:11:00,46.0,44.0,30.14,West,281,0.0,1.0,92,0.00,,,0.00,,2013-06-12 14:11:00,
2013-06-12 07:23:00,47.0,45.0,30.14,WSW,242,0.0,2.0,93,0.00,,,0.00,,2013-06-12 14:23:00,
2013-06-12 07:33:00,47.0,45.0,30.14,WSW,242,0.0,2.0,93,0.00,,,0.00,,2013-06-12 14:33:00,
2013-06-12 07:43:00,49.0,46.0,30.14,West,277,0.0,3.0,91,0.00,,,0.00,,2013-06-12 14:43:00,
2013-06-12 07:53:00,49.0,46.0,30.14,West,277,0.0,3.0,91,0.00,,,0.00,,2013-06-12 14:53:00,
2013-06-12 08:01:00,51.0,47.0,30.14,WSW,238,0.0,2.0,87,0.00,,,0.00,,2013-06-12 15:01:00,
2013-06-12 08:11:00,52.0,48.0,30.14,SSW,212,0.0,3.0,85,0.00,,,0.00,,2013-06-12 15:11:00,
2013-06-12 08:23:00,52.0,48.0,30.14,SSW,212,0.0,3.0,85,0.00,,,0.00,,2013-06-12 15:23:00,
2013-06-12 08:32:00,53.0,47.0,30.14,SW,229,0.0,3.0,80,0.00,,,0.00,,2013-06-12 15:32:00,
2013-06-12 08:43:00,53.0,47.0,30.14,SW,229,0.0,3.0,80,0.00,,,0.00,,2013-06-12 15:43:00,
2013-06-12 08:52:00,55.0,48.0,30.14,SW,234,1.0,4.0,77,0.00,,,0.00,,2013-06-12 15:52:00,
2013-06-12 09:01:00,55.0,47.0,30.14,South,175,0.0,6.0,75,0.00,,,0.00,,2013-06-12 16:01:00,
2013-06-12 09:11:00,55.0,47.0,30.14,SSW,212,3.0,5.0,74,0.00,,,0.00,,2013-06-12 16:11:00,
2013-06-12 09:21:00,56.0,47.0,30.14,SW,214,0.0,4.0,73,0.00,,,0.00,,2013-06-12 16:21:00,
2013-06-12 09:32:00,56.0,47.0,30.14,WNW,289,0.0,3.0,73,0.00,,,0.00,,2013-06-12 16:32:00,
2013-06-12 09:43:00,57.0,48.0,30.14,SSW,198,0.0,4.0,71,0.00,,,0.00,,2013-06-12 16:43:00,
2013-06-12 09:52:00,57.0,48.0,30.14,SSW,198,0.0,4.0,71,0.00,,,0.00,,2013-06-12 16:52:00,
2013-06-12 10:01:00,59.0,46.0,30.14,North,355,3.0,5.0,62,0.00,,,0.00,,2013-06-12 17:01:00,
2013-06-12 10:11:00,60.0,47.0,30.14,WSW,248,1.0,4.0,62,0.00,,,0.00,,2013-06-12 17:11:00,
2013-06-12 10:22:00,60.0,47.0,30.14,SW,233,0.0,2.0,61,0.00,,,0.00,,2013-06-12 17:22:00,
2013-06-12 10:32:00,61.0,47.0,30.14,SSE,163,2.0,7.0,61,0.00,,,0.00,,2013-06-12 17:32:00,
2013-06-12 10:42:00,61.0,47.0,30.14,SSE,163,2.0,7.0,61,0.00,,,0.00,,2013-06-12 17:42:00,
2013-06-12 10:52:00,60.0,47.0,30.14,WNW,292,0.0,4.0,63,0.00,,,0.00,,2013-06-12 17:52:00,
2013-06-12 11:02:00,60.0,46.0,30.14,SSE,163,2.0,5.0,60,0.00,,,0.00,,2013-06-12 18:02:00,
2013-06-12 11:11:00,60.0,46.0,30.14,South,184,0.0,3.0,60,0.00,,,0.00,,2013-06-12 18:11:00,
2013-06-12 11:22:00,60.0,46.0,30.14,SW,232,0.0,3.0,60,0.00,,,0.00,,2013-06-12 18:22:00,
2013-06-12 11:32:00,60.0,46.0,30.14,WSW,240,0.0,2.0,59,0.00,,,0.00,,2013-06-12 18:32:00,
2013-06-12 11:43:00,61.0,46.0,30.14,WSW,240,0.0,3.0,58,0.00,,,0.00,,2013-06-12 18:43:00,
2013-06-12 11:53:00,61.0,46.0,30.14,SW,235,0.0,3.0,57,0.00,,,0.00,,2013-06-12 18:53:00,
2013-06-12 12:01:00,62.0,46.0,30.14,NNW,329,0.0,4.0,55,0.00,,,0.00,,2013-06-12 19:01:00,
2013-06-12 12:11:00,62.0,46.0,30.14,NNW,329,0.0,4.0,55,0.00,,,0.00,,2013-06-12 19:11:00,
2013-06-12 12:22:00,63.0,46.0,30.14,SW,221,2.0,5.0,53,0.00,,,0.00,,2013-06-12 19:22:00,
2013-06-12 12:32:00,63.0,46.0,30.14,West,271,0.0,2.0,54,0.00,,,0.00,,2013-06-12 19:32:00,
2013-06-12 12:42:00,63.0,46.0,30.14,WNW,301,1.0,4.0,54,0.00,,,0.00,,2013-06-12 19:42:00,
2013-06-12 12:52:00,63.0,45.0,30.14,SSE,163,0.0,4.0,52,0.00,,,0.00,,2013-06-12 19:52:00,
2013-06-12 13:01:00,63.0,45.0,30.14,South,173,2.0,4.0,52,0.00,,,0.00,,2013-06-12 20:01:00,
2013-06-12 13:11:00,64.0,47.0,30.14,NNW,344,1.0,7.0,55,0.00,,,0.00,,2013-06-12 20:11:00,
2013-06-12 13:21:00,64.0,47.0,30.14,WSW,239,1.0,7.0,55,0.00,,,0.00,,2013-06-12 20:21:00,
2013-06-12 13:32:00,64.0,47.0,30.14,WSW,239,1.0,7.0,55,0.00,,,0.00,,2013-06-12 20:32:00,
2013-06-12 13:42:00,63.0,48.0,30.14,West,264,0.0,7.0,57,0.00,,,0.00,,2013-06-12 20:42:00,
2013-06-12 13:54:00,63.0,47.0,30.14,WNW,289,1.0,11.0,55,0.00,,,0.00,,2013-06-12 20:54:00,
2013-06-12 14:01:00,63.0,47.0,30.14,WNW,289,1.0,11.0,55,0.00,,,0.00,,2013-06-12 21:01:00,
2013-06-12 14:11:00,63.0,47.0,30.14,WNW,289,1.0,11.0,55,0.00,,,0.00,,2013-06-12 21:11:00,
2013-06-12 14:21:00,63.0,48.0,30.15,ENE,69,2.0,9.0,58,0.00,,,0.00,,2013-06-12 21:21:00,
2013-06-12 14:32:00,64.0,49.0,30.15,NNE,33,2.0,10.0,59,0.00,,,0.00,,2013-06-12 21:32:00,
2013-06-12 14:43:00,64.0,48.0,30.15,WSW,248,1.0,10.0,57,0.00,,,0.00,,2013-06-12 21:43:00,
2013-06-12 14:53:00,64.0,49.0,30.14,NW,317,1.0,7.0,58,0.00,,,0.00,,2013-06-12 21:53:00,
2013-06-12 15:01:00,64.0,49.0,30.14,NW,317,1.0,7.0,58,0.00,,,0.00,,2013-06-12 22:01:00,
2013-06-12 15:11:00,65.0,48.0,30.15,NNE,26,3.0,7.0,54,0.00,,,0.00,,2013-06-12 22:11:00,
2013-06-12 15:22:00,65.0,48.0,30.15,North,5,3.0,10.0,54,0.00,,,0.00,,2013-06-12 22:22:00,
2013-06-12 15:32:00,65.0,48.0,30.15,North,5,3.0,10.0,54,0.00,,,0.00,,2013-06-12 22:32:00,
2013-06-12 15:42:00,66.0,49.0,30.14,West,261,3.0,13.0,54,0.00,,,0.00,,2013-06-12 22:42:00,
2013-06-12 15:52:00,66.0,49.0,30.14,WNW,284,2.0,10.0,55,0.00,,,0.00,,2013-06-12 22:52:00,
2013-06-12 16:01:00,66.0,48.0,30.14,West,277,1.0,11.0,53,0.00,,,0.00,,2013-06-12 23:01:00,
2013-06-12 16:11:00,66.0,48.0,30.14,WNW,286,6.0,11.0,53,0.00,,,0.00,,2013-06-12 23:11:00,
2013-06-12 16:22:00,66.0,48.0,30.14,WNW,286,6.0,11.0,53,0.00,,,0.00,,2013-06-12 23:22:00,
2013-06-12 16:32:00,66.0,48.0,30.14,WNW,286,6.0,11.0,53,0.00,,,0.00,,2013-06-12 23:32:00,
2013-06-12 16:42:00,66.0,48.0,30.14,WNW,286,6.0,11.0,53,0.00,,,0.00,,2013-06-12 23:42:00,
2013-06-12 16:52:00,64.0,47.0,30.14,NW,323,2.0,9.0,55,0.00,,,0.00,,2013-06-12 23:52:00,
2013-06-12 17:01:00,64.0,47.0,30.14,NW,323,2.0,9.0,55,0.00,,,0.00,,2013-06-13 00:01:00,
2013-06-12 17:11:00,64.0,48.0,30.14,WNW,283,3.0,12.0,57,0.00,,,0.00,,2013-06-13 00:11:00,
2013-06-12 17:22:00,64.0,47.0,30.14,NNE,15,6.0,12.0,54,0.00,,,0.00,,2013-06-13 00:22:00,
2013-06-12 17:32:00,64.0,48.0,30.14,West,261,5.0,10.0,56,0.00,,,0.00,,2013-06-13 00:32:00,
2013-06-12 17:42:00,64.0,47.0,30.14,SW,234,6.0,11.0,55,0.00,,,0.00,,2013-06-13 00:42:00,
2013-06-12 17:52:00,64.0,47.0,30.14,SSW,212,3.0,9.0,55,0.00,,,0.00,,2013-06-13 00:52:00,
2013-06-12 18:01:00,63.0,48.0,30.14,WSW,245,2.0,11.0,57,0.00,,,0.00,,2013-06-13 01:01:00,
2013-06-12 18:11:00,63.0,48.0,30.14,West,276,5.0,14.0,57,0.00,,,0.00,,2013-06-13 01:11:00,
2013-06-12 18:22:00,63.0,48.0,30.14,West,276,5.0,14.0,57,0.00,,,0.00,,2013-06-13 01:22:00,
2013-06-12 18:32:00,62.0,47.0,30.14,WSW,254,2.0,12.0,58,0.00,,,0.00,,2013-06-13 01:32:00,
2013-06-12 18:42:00,62.0,48.0,30.14,WNW,294,4.0,13.0,60,0.00,,,0.00,,2013-06-13 01:42:00,
2013-06-12 18:52:00,62.0,48.0,30.14,WNW,294,4.0,13.0,60,0.00,,,0.00,,2013-06-13 01:52:00,
2013-06-12 19:01:00,61.0,47.0,30.14,NW,310,3.0,15.0,59,0.00,,,0.00,,2013-06-13 02:01:00,
2013-06-12 19:11:00,61.0,47.0,30.14,SSW,213,6.0,15.0,60,0.00,,,0.00,,2013-06-13 02:11:00,
2013-06-12 19:22:00,60.0,47.0,30.14,WNW,293,3.0,15.0,62,0.00,,,0.00,,2013-06-13 02:22:00,
2013-06-12 19:32:00,60.0,47.0,30.14,ENE,69,1.0,12.0,61,0.00,,,0.00,,2013-06-13 02:32:00,
2013-06-12 19:42:00,60.0,47.0,30.14,ENE,69,1.0,12.0,61,0.00,,,0.00,,2013-06-13 02:42:00,
2013-06-12 19:52:00,59.0,46.0,30.15,NW,324,5.0,14.0,63,0.00,,,0.00,,2013-06-13 02:52:00,
2013-06-12 20:01:00,58.0,46.0,30.15,SW,214,7.0,13.0,65,0.00,,,0.00,,2013-06-13 03:01:00,
2013-06-12 20:11:00,58.0,47.0,30.15,SSW,194,1.0,12.0,67,0.00,,,0.00,,2013-06-13 03:11:00,
2013-06-12 20:22:00,58.0,47.0,30.15,WSW,244,2.0,12.0,67,0.00,,,0.00,,2013-06-13 03:22:00,
2013-06-12 20:32:00,57.0,47.0,30.15,NW,312,2.0,10.0,69,0.00,,,0.00,,2013-06-13 03:32:00,
2013-06-12 20:42:00,57.0,47.0,30.15,North,355,1.0,11.0,69,0.00,,,0.00,,2013-06-13 03:42:00,
2013-06-12 20:52:00,57.0,47.0,30.15,WNW,292,2.0,6.0,70,0.00,,,0.00,,2013-06-13 03:52:00,
2013-06-12 21:01:00,56.0,47.0,30.15,WNW,298,1.0,5.0,71,0.00,,,0.00,,2013-06-13 04:01:00,
2013-06-12 21:11:00,56.0,47.0,30.15,WNW,296,0.0,5.0,72,0.00,,,0.00,,2013-06-13 04:11:00,
2013-06-12 21:22:00,55.0,47.0,30.15,NW,315,2.0,9.0,73,0.00,,,0.00,,2013-06-13 04:22:00,
2013-06-12 21:32:00,55.0,47.0,30.16,NW,309,0.0,3.0,74,0.00,,,0.00,,2013-06-13 04:32:00,
2013-06-12 21:43:00,55.0,47.0,30.16,WSW,252,0.0,3.0,75,0.00,,,0.00,,2013-06-13 04:43:00,
2013-06-12 21:53:00,55.0,47.0,30.16,WSW,252,0.0,3.0,75,0.00,,,0.00,,2013-06-13 04:53:00,
2013-06-12 22:01:00,55.0,47.0,30.16,WSW,252,0.0,3.0,75,0.00,,,0.00,,2013-06-13 05:01:00,
2013-06-12 22:11:00,54.0,47.0,30.16,West,263,1.0,5.0,76,0.00,,,0.00,,2013-06-13 05:11:00,
2013-06-12 22:23:00,54.0,47.0,30.16,West,263,1.0,5.0,76,0.00,,,0.00,,2013-06-13 05:23:00,
2013-06-12 22:33:00,53.0,46.0,30.17,WSW,252,0.0,3.0,77,0.00,,,0.00,,2013-06-13 05:33:00,
2013-06-12 22:42:00,53.0,46.0,30.17,SW,219,0.0,2.0,78,0.00,,,0.00,,2013-06-13 05:42:00,
2013-06-12 22:52:00,53.0,46.0,30.17,SW,223,1.0,5.0,78,0.00,,,0.00,,2013-06-13 05:52:00,
2013-06-12 23:02:00,53.0,46.0,30.17,SW,223,1.0,5.0,78,0.00,,,0.00,,2013-06-13 06:02:00,
2013-06-12 23:11:00,53.0,47.0,30.17,WSW,257,2.0,10.0,79,0.00,,,0.00,,2013-06-13 06:11:00,
2013-06-12 23:21:00,52.0,46.0,30.17,NNW,331,1.0,6.0,79,0.00,,,0.00,,2013-06-13 06:21:00,
2013-06-12 23:33:00,52.0,46.0,30.17,WNW,287,0.0,5.0,80,0.00,,,0.00,,2013-06-13 06:33:00,
2013-06-12 23:44:00,52.0,46.0,30.17,SSW,205,0.0,3.0,80,0.00,,,0.00,,2013-06-13 06:44:00,
2013-06-12 23:52:00,52.0,46.0,30.18,SSW,205,1.0,2.0,80,0.00,,,0.00,,2013-06-13 06:52:00,